Погода в Свободном

Россия / Саратовская область     52°19′51″N   46°22′02″E
темп.,
°C
ветер,
м/с
пор.,
м/с
влажн.,
%
обл.,
%
осадки,
мм/ч
давл.,
гПа
погр.,
м
5 марта, пт
пт501:000зюз61392100 0.1 1002753
04:000зюз51294100 0.1 1002797
07:00−1зюз51195100 0.4 1001428
10:000з71196100 0.5 1003810
13:000зсз799094 0.3 1005848
16:00−1сз478479 0.3 1008699
19:00−6зсз45900 0.0 101194
22:00−9сз449214 0.0 101464
6 марта, сб
сб601:00−10зсз349151 0.0 101549
04:00−11зсз449348 0.0 101764
07:00−12сз349473 0.0 101750
10:00−9ссз349386 0.0 1018138
13:00−6с2383100 0.0 1017280
16:00−5св2281100 0.0 1016387
19:00−8св1288100 0.0 101521
22:00−9ссв2285100 0.0 101521
7 марта, вс
вс701:00−12с238688 0.0 101421
04:00−13ссз338949 0.0 101526
07:00−15зсз34900 0.0 101546
10:00−11з48920 0.0 1015202
13:00−8зюз5109119 0.0 1014489
16:00−6зюз6108638 0.0 1012808
19:00−7юз61491100 0.0 1010735
22:00−6юз91693100 0.3 1006905
8 марта, пн
пн801:00−4юз101791100 0.9 10031027
04:00−10з5128386 1.2 1005257
07:00−13зюз498532 0.0 1006139
10:00−9юз4108165 0.0 1006334
13:00−5ю5995100 0.3 1003575
16:00−1юз101596100 2.9 10001148
19:00−4з81392100 2.1 1000743
22:00−10з8178196 2.4 1006799
9 марта, вт
вт901:00−11з8168984 0.0 1009600
04:00−13з7149177 0.0 1010345
07:00−14з5129447 0.0 1013216
10:00−12з589333 0.0 1014250
13:00−9з459258 0.0 1014310
16:00−8з349079 0.0 1014362
19:00−12зсз2394100 0.0 101321
22:00−12сз3395100 0.0 101440